User: anonymous   Login
Location: *
(2.5500°S, 65.9667°W)
Time: 00:20:52
(UTC+00:00)
Language:

CZ-4B R/B - Orbit

View from above orbital plane
View from above orbital plane
View from above satellite
View from above satellite

Ground track
Ground track

The orbit data is extracted from the following two-line orbital elements,

1 27432U 02024C   22020.59229059 -.00000010  00000-0  18878-4 0  9991
2 27432  99.0750  43.5064 0049967 335.1449 133.0328 14.14122816 15923
Epoch (UTC): 20 January 2022 14:12:53
Eccentricity: 0.0049967
inclination: 99.0750°
perigee height: 809 km
apogee height: 881 km
right ascension of ascending node: 43.5064°
argument of perigee: 335.1449°
revolutions per day: 14.14122816
mean anomaly at epoch: 133.0328°
orbit number at epoch: 1592

The dashed part of the orbit path shows where the satellite is in the earth's shadow,  

DLR